Wind_Speed
71 76 80 79 74 71 71 71 79 76 72 72 68 60 64 65 61 54 54 51 48 46 45 43 42 46 50 50 51 51 49 48 49 49 49 51 51 47 46 47 45 44 45 47 46 49 51 51 51
67 70 77 79 74 73 75 82 85 82 73 77 73 64 64 65 64 60 57 54 52 50 49 48 45 46 48 52 53 54 54 53 52 51 51 51 52 53 52 51 50 51 52 51 51 49 50 50 53
68 70 71 74 78 76 77 80 85 82 76 77 73 70 66 66 68 66 61 56 56 54 54 52 48 47 48 49 51 55 55 54 55 56 52 53 54 55 56 55 55 53 54 54 54 56 55 55 56
71 70 70 68 72 80 86 86 84 80 78 76 78 75 69 71 68 66 63 60 57 55 54 53 52 49 48 49 52 49 52 56 56 56 57 57 55 55 59 59 57 57 58 57 56 57 58 59 60
73 71 69 68 70 75 91 92 89 82 80 79 76 78 77 73 73 69 67 64 62 59 56 54 53 52 50 46 47 49 49 51 52 54 56 58 61 61 59 59 60 61 63 63 62 60 62 61 61
71 75 71 70 71 74 82 89 90 87 84 84 80 78 77 76 77 74 68 67 65 63 61 58 56 55 53 50 51 53 53 50 51 52 52 53 54 56 58 63 63 62 63 64 65 65 67 67 66
70 72 72 72 73 73 77 84 90 91 91 89 90 80 79 79 80 78 74 69 68 64 61 60 60 59 56 56 55 54 55 55 57 59 58 56 56 57 57 58 58 61 63 65 64 65 68 72 74
69 68 70 72 74 74 79 81 82 89 90 90 88 86 85 83 84 80 75 73 72 71 70 66 62 62 63 61 60 57 53 54 52 54 56 59 60 62 61 62 64 67 66 69 70 71 72 72 72
69 64 64 66 75 76 78 79 79 86 88 87 87 87 86 86 86 82 77 78 76 76 74 70 66 66 66 66 64 62 56 55 55 56 56 58 59 60 62 66 69 70 71 73 73 73 75 75 75
68 65 62 67 70 73 72 76 77 80 87 86 87 87 88 87 88 85 84 83 81 78 76 70 70 69 70 69 68 64 60 58 59 59 60 60 59 61 63 66 69 69 71 72 76 76 76 78 79
68 63 66 64 66 68 70 74 76 76 78 86 90 90 89 90 91 88 85 83 82 78 76 72 73 72 73 71 69 67 62 63 64 62 62 62 61 63 65 66 69 69 72 70 69 74 74 76 77
65 66 68 66 67 66 68 71 75 75 77 80 85 88 89 92 92 90 87 84 80 79 76 75 76 76 73 71 69 69 69 66 64 64 63 63 64 64 66 68 66 68 69 71 72 71 71 71 73
64 66 65 66 67 67 67 68 74 73 77 78 77 84 85 86 87 87 85 81 79 79 76 75 74 73 74 71 67 70 69 67 65 65 64 63 63 65 66 64 68 69 68 66 64 64 64 64 64
61 62 63 66 69 65 61 66 67 71 78 77 73 76 79 83 83 80 79 77 76 75 75 73 74 73 72 70 68 68 68 68 66 64 63 63 65 66 66 67 65 64 62 58 57 59 61 61 61
61 64 63 65 65 59 58 59 64 72 73 73 73 73 75 77 78 75 75 72 72 71 70 69 69 68 68 66 66 65 65 64 64 62 64 64 67 65 65 63 62 61 60 58 58 58 58 58 59
63 65 65 66 66 63 61 55 64 67 66 69 69 70 72 74 75 75 73 70 69 68 67 66 63 63 63 64 64 65 64 63 60 62 65 66 65 63 64 62 62 59 59 59 57 56 56 58 59
64 65 64 63 63 61 61 55 63 62 62 65 67 68 69 71 73 74 73 74 72 68 66 65 62 61 63 64 63 62 61 59 61 64 65 63 62 61 61 60 59 58 59 58 55 54 53 55 57
62 66 65 65 69 65 63 57 62 61 60 64 68 68 69 69 69 73 75 74 72 69 66 65 64 62 62 62 62 62 61 61 62 63 62 61 58 60 59 58 57 58 57 55 53 51 51 54 57
58 66 68 68 70 67 64 60 61 60 57 63 68 69 69 68 70 71 69 71 72 73 71 67 67 65 65 65 65 64 61 62 63 63 63 59 59 58 57 55 56 55 53 51 50 50 51 55 59
63 62 68 73 71 70 69 61 61 64 57 61 67 71 72 69 70 72 71 71 71 70 70 69 68 66 66 65 64 62 63 63 64 62 59 59 56 56 53 54 55 52 51 51 49 50 53 56 58
68 66 69 67 71 74 74 66 65 66 63 59 66 71 72 72 70 72 71 69 68 68 68 68 68 67 66 64 63 64 64 64 62 60 58 57 55 54 52 53 52 51 50 51 50 52 54 57 59
74 74 74 73 71 69 66 66 65 68 66 68 66 69 72 71 72 73 73 69 65 66 69 67 67 66 65 64 65 65 63 61 60 58 58 56 54 52 52 52 50 49 49 51 51 54 57 57 59
74 77 78 80 77 73 68 67 65 69 71 76 71 67 69 71 73 73 73 71 69 69 67 66 67 66 65 65 64 64 61 60 60 58 56 54 54 52 50 48 49 49 50 51 52 53 57 58 57
71 79 78 82 80 74 77 73 67 68 77 78 74 70 67 71 73 76 72 71 70 69 69 66 67 68 66 66 65 65 62 61 60 58 56 55 54 53 50 46 48 49 50 51 53 54 56 56 54
66 69 77 82 80 76 78 78 71 79 76 79 79 73 69 70 74 76 78 73 73 71 71 70 68 68 68 66 66 65 62 61 59 58 57 56 54 53 50 47 48 50 51 53 54 54 56 56 55
76 73 71 73 78 81 78 74 76 81 85 84 82 80 75 68 74 77 78 77 75 75 72 71 70 70 69 67 67 65 65 61 59 57 57 56 54 53 52 51 50 50 52 53 53 54 54 54 54
73 81 80 75 72 71 74 80 82 82 81 83 82 83 77 75 69 78 80 79 77 76 75 72 73 72 71 69 68 66 64 59 60 59 58 55 55 53 56 55 53 54 54 55 54 53 53 56 56
75 76 82 84 78 72 68 70 81 87 83 82 83 85 83 77 72 73 79 81 79 76 76 76 73 74 74 71 67 65 63 59 58 59 58 56 56 54 56 55 55 55 55 55 55 54 54 56 56
79 79 81 82 82 78 72 69 72 75 85 87 86 86 85 82 78 74 77 81 82 80 78 78 76 73 76 75 71 67 64 62 60 60 57 57 57 55 56 57 56 57 56 57 56 55 52 54 57
82 82 82 82 78 81 80 73 73 74 76 87 91 88 86 86 83 82 79 80 79 82 79 80 77 76 75 75 77 75 71 66 63 62 59 60 61 57 57 59 57 57 59 58 57 55 53 55 56
Wind_Direction
243 243 243 241 237 239 237 241 240 240 241 244 242 243 245 244 242 244 245 248 248 245 244 245 247 246 248 250 249 246 246 243 244 239 240 243 245 247 248 251 253 255 257 257 260 262 265 268 268
247 244 242 239 238 236 238 239 239 239 239 242 243 242 244 246 244 244 243 247 248 248 246 242 246 248 250 249 251 248 246 246 245 247 246 244 245 247 249 250 253 255 260 261 261 261 261 267 269
248 245 243 241 240 234 235 237 239 238 238 240 241 239 241 245 245 246 244 246 246 246 247 248 249 250 250 252 252 250 252 252 251 250 252 252 248 247 250 253 254 254 257 259 263 264 264 265 265
253 248 244 242 240 239 235 237 235 235 236 240 239 238 241 242 244 243 246 247 249 246 248 248 250 248 250 252 251 253 253 253 255 254 254 254 256 252 250 250 252 256 260 260 260 262 264 265 266
250 249 246 243 239 240 236 236 239 235 235 238 239 239 239 240 242 241 244 246 248 248 247 249 250 250 249 251 252 252 255 257 258 259 258 258 257 258 259 257 257 259 259 261 263 263 265 266 265
249 247 247 244 241 239 239 236 238 237 235 237 240 238 236 238 243 242 241 243 246 248 247 248 250 250 251 250 252 252 252 254 256 260 262 261 261 261 260 261 262 263 263 263 264 266 265 264 265
250 247 244 244 242 241 240 238 235 236 235 238 238 237 235 237 239 240 241 239 243 246 248 252 251 250 250 249 249 251 252 255 257 256 259 262 265 263 262 262 265 263 263 263 264 267 267 266 268
248 246 246 245 245 241 238 238 236 236 235 234 237 237 235 237 238 240 240 238 244 247 252 251 250 250 248 249 250 251 251 254 257 257 258 259 262 261 262 265 267 266 264 265 267 268 269 269 271
244 245 245 243 243 241 239 239 237 235 233 233 236 237 236 237 237 238 239 240 244 248 251 250 249 248 248 248 250 248 252 254 258 260 262 262 262 264 266 265 267 267 268 269 271 272 270 271 270
242 242 242 242 242 242 240 238 239 237 234 234 234 236 238 238 238 238 241 243 245 248 246 248 247 246 248 248 250 251 249 251 256 259 261 263 264 266 267 268 268 267 269 270 273 276 275 274 273
240 239 239 241 242 242 240 238 238 237 236 235 235 235 238 239 239 237 241 242 243 243 244 247 246 245 247 249 250 253 253 253 254 258 261 264 265 267 270 268 269 271 273 275 275 277 275 273 271
241 239 238 241 242 242 240 239 237 236 237 236 234 235 238 239 240 238 240 243 243 244 245 244 243 243 246 248 250 253 254 255 257 260 262 263 265 267 269 270 270 274 277 279 279 277 274 272 270
240 239 239 240 244 242 241 239 238 237 237 238 235 235 237 239 240 240 239 243 245 244 242 241 242 244 246 248 250 252 254 256 258 260 262 262 265 269 270 271 275 278 280 281 279 277 276 274 273
236 238 237 238 243 244 241 239 239 239 237 237 235 236 237 238 241 242 241 240 240 240 241 241 243 245 247 250 250 252 254 256 258 259 261 263 266 269 272 274 276 278 279 279 280 279 276 274 274
235 237 233 238 242 245 243 238 239 238 236 237 236 234 235 236 238 239 238 237 240 242 242 242 241 242 243 246 248 250 253 254 256 258 262 265 267 269 272 273 276 277 276 279 280 281 280 278 277
238 235 236 236 239 241 242 237 239 238 238 238 236 234 236 236 236 238 238 237 240 238 239 239 239 240 240 243 247 249 251 254 255 260 262 264 265 268 271 273 276 275 277 279 280 281 279 278 278
240 236 237 234 238 240 242 238 240 239 236 236 235 234 234 236 234 235 235 236 235 235 236 237 238 239 240 242 244 247 248 253 257 259 261 261 264 267 270 273 273 273 275 276 276 280 280 279 280
238 235 235 236 234 230 237 236 238 239 236 233 234 232 233 233 233 234 232 233 233 233 234 235 236 238 240 242 243 246 249 252 255 256 259 261 263 267 269 270 271 272 273 273 276 280 282 283 286
241 237 235 234 234 236 236 235 237 237 237 235 233 233 231 231 231 231 230 231 232 234 234 234 235 237 240 243 245 248 250 251 251 254 258 259 263 266 269 268 271 271 271 272 276 280 284 287 293
241 238 236 233 233 234 236 235 236 237 235 235 234 233 230 230 230 230 229 229 229 230 232 234 236 237 239 242 244 247 247 248 249 254 257 260 262 266 266 269 272 270 269 271 277 281 287 290 296
239 239 238 234 237 236 236 235 234 239 234 235 234 232 231 229 229 230 228 228 229 229 232 232 233 234 237 239 242 243 245 246 250 255 257 260 263 264 266 270 270 266 269 273 278 282 289 292 300
238 238 238 237 236 237 236 233 236 238 238 236 236 232 232 229 227 230 228 227 228 228 228 228 230 232 235 237 239 241 243 246 251 255 257 260 262 265 268 268 267 268 270 273 279 284 291 296 301
241 241 240 239 238 236 236 235 235 236 239 238 234 234 231 231 227 226 228 227 227 227 229 230 231 232 235 237 239 241 243 246 251 254 256 258 261 266 267 268 269 269 272 274 280 286 292 298 301
243 241 242 241 241 237 237 236 231 236 238 238 236 233 231 229 229 226 225 226 225 226 228 230 232 233 234 237 240 242 241 244 250 252 255 258 259 264 264 269 270 270 272 276 282 288 292 301 304
248 245 242 241 241 238 237 238 233 235 236 241 237 232 230 229 228 227 226 226 226 226 228 228 230 231 233 236 240 241 241 247 250 252 253 257 259 262 263 269 271 272 273 277 283 290 293 301 305
246 248 246 243 241 239 237 236 236 236 236 236 239 234 231 228 229 228 227 227 226 226 228 229 230 231 232 236 240 242 243 244 249 251 253 257 259 262 262 266 270 273 275 279 286 290 296 303 307
247 245 246 246 243 240 238 235 235 236 235 234 234 238 233 228 229 229 226 227 228 226 227 229 231 232 233 235 239 243 244 245 249 250 252 255 259 262 264 266 269 272 277 281 286 290 296 303 306
248 246 245 244 243 241 238 236 235 234 234 234 233 234 234 229 227 229 228 227 228 227 226 228 230 233 233 235 238 242 245 247 250 250 252 255 259 262 263 266 269 272 277 281 287 291 294 299 303
252 247 245 245 241 240 237 236 237 231 232 233 233 232 233 232 226 227 227 228 228 227 228 227 229 232 235 234 235 238 241 244 247 248 251 253 257 259 262 265 266 271 275 280 285 290 294 297 300
249 249 248 246 242 239 235 232 236 236 230 230 231 231 230 230 228 225 226 226 227 228 228 229 229 231 234 237 238 239 241 243 245 247 248 251 255 258 260 263 270 272 274 278 283 286 290 296 298
Height
10690 10694 10699 10705 10714 10725 10729 10727 10723 10730 10742 10748 10753 10756 10759 10762 10765 10771 10771 10775 10782 10787 10789 10792 10795 10797 10800 10802 10805 10807 10810 10812 10815 10818 10820 10822 10824 10824 10826 10828 10829 10829 10830 10832 10833 10833 10833 10833 10833
10675 10679 10684 10691 10703 10713 10714 10709 10707 10719 10732 10734 10742 10746 10750 10754 10758 10761 10764 10768 10773 10778 10781 10785 10788 10790 10792 10794 10796 10798 10802 10805 10807 10810 10813 10815 10816 10817 10819 10819 10821 10823 10823 10824 10825 10826 10827 10826 10825
10658 10663 10670 10679 10688 10698 10693 10693 10691 10708 10720 10722 10730 10737 10742 10745 10745 10753 10756 10761 10764 10769 10772 10776 10780 10783 10785 10787 10788 10790 10793 10797 10800 10802 10804 10806 10808 10810 10811 10813 10814 10814 10815 10815 10817 10817 10818 10819 10818
10642 10649 10656 10666 10672 10676 10672 10674 10681 10695 10705 10710 10715 10725 10729 10733 10737 10743 10748 10751 10755 10760 10764 10768 10771 10775 10777 10779 10780 10782 10784 10787 10790 10793 10796 10797 10799 10800 10802 10804 10805 10806 10806 10807 10808 10809 10809 10809 10809
10627 10634 10642 10651 10654 10654 10654 10658 10667 10681 10692 10695 10703 10710 10716 10723 10727 10733 10739 10744 10745 10749 10755 10760 10763 10766 10769 10771 10773 10775 10776 10778 10780 10783 10786 10788 10790 10792 10793 10795 10796 10797 10798 10798 10798 10799 10800 10801 10801
10614 10618 10627 10633 10634 10637 10640 10646 10656 10667 10676 10682 10688 10697 10703 10709 10716 10721 10729 10733 10735 10740 10745 10750 10754 10757 10761 10763 10764 10766 10767 10769 10771 10774 10775 10778 10780 10782 10783 10785 10786 10787 10788 10789 10790 10789 10790 10790 10790
10597 10601 10611 10615 10620 10624 10623 10629 10643 10646 10659 10668 10672 10683 10691 10693 10700 10708 10717 10722 10724 10729 10735 10739 10745 10748 10751 10752 10753 10756 10759 10761 10762 10765 10766 10768 10770 10772 10774 10775 10776 10776 10777 10777 10778 10778 10778 10779 10779
10582 10586 10596 10601 10604 10603 10605 10611 10624 10634 10645 10651 10662 10670 10671 10678 10687 10698 10706 10708 10713 10718 10725 10729 10735 10739 10737 10741 10743 10748 10751 10752 10754 10755 10757 10759 10761 10762 10763 10764 10765 10766 10766 10766 10767 10767 10767 10767 10766
10562 10576 10581 10582 10581 10585 10594 10600 10612 10619 10628 10638 10646 10650 10659 10663 10674 10685 10691 10696 10700 10707 10712 10718 10724 10726 10728 10729 10732 10736 10742 10743 10744 10745 10747 10749 10751 10752 10753 10754 10754 10754 10755 10755 10755 10754 10753 10753 10751
10549 10559 10565 10560 10567 10573 10583 10591 10597 10606 10616 10625 10630 10635 10639 10651 10658 10671 10676 10681 10688 10696 10699 10705 10710 10712 10714 10718 10721 10725 10732 10733 10734 10736 10738 10739 10741 10742 10742 10742 10743 10742 10743 10742 10741 10739 10738 10738 10736
10536 10548 10543 10549 10554 10561 10569 10576 10582 10594 10602 10608 10612 10620 10629 10636 10642 10655 10661 10669 10677 10683 10686 10692 10696 10698 10701 10705 10711 10715 10720 10722 10724 10726 10728 10729 10730 10730 10731 10731 10731 10731 10730 10729 10727 10726 10723 10721 10720
10523 10527 10528 10535 10540 10548 10553 10562 10569 10577 10582 10585 10601 10606 10612 10619 10627 10640 10649 10658 10664 10668 10673 10678 10681 10684 10689 10694 10699 10703 10706 10709 10713 10715 10717 10718 10719 10719 10719 10720 10720 10720 10718 10716 10713 10711 10708 10706 10704
10508 10509 10517 10522 10529 10532 10540 10548 10552 10566 10568 10572 10586 10592 10599 10605 10612 10624 10637 10644 10647 10652 10659 10666 10667 10673 10677 10683 10688 10690 10694 10697 10701 10704 10706 10707 10708 10708 10708 10708 10709 10708 10705 10703 10700 10697 10695 10693 10691
10492 10495 10504 10511 10514 10521 10530 10533 10545 10549 10548 10559 10572 10579 10585 10591 10599 10611 10622 10628 10631 10639 10645 10652 10656 10661 10668 10672 10676 10678 10684 10686 10689 10692 10694 10695 10696 10697 10698 10698 10697 10695 10693 10691 10688 10686 10683 10681 10679
10477 10484 10491 10497 10502 10512 10517 10527 10532 10524 10538 10547 10557 10564 10570 10577 10586 10597 10604 10615 10619 10626 10633 10638 10642 10650 10656 10660 10663 10667 10671 10675 10678 10680 10682 10684 10685 10686 10687 10686 10685 10684 10681 10679 10677 10674 10672 10669 10667
10463 10472 10476 10483 10488 10498 10507 10517 10512 10516 10527 10535 10543 10553 10558 10564 10574 10581 10593 10600 10607 10613 10618 10625 10632 10638 10643 10647 10651 10655 10659 10662 10665 10669 10671 10673 10674 10675 10675 10675 10674 10672 10670 10668 10665 10663 10661 10658 10655
10451 10458 10464 10470 10477 10486 10493 10503 10496 10505 10514 10521 10529 10537 10543 10549 10559 10566 10575 10582 10592 10598 10607 10613 10620 10625 10629 10634 10639 10643 10647 10651 10654 10656 10659 10660 10662 10664 10664 10664 10663 10661 10659 10657 10655 10654 10651 10647 10643
10439 10445 10450 10455 10462 10466 10480 10490 10486 10492 10502 10508 10513 10521 10527 10534 10543 10548 10558 10568 10578 10586 10594 10601 10607 10612 10616 10620 10625 10629 10635 10639 10642 10644 10647 10649 10651 10653 10654 10653 10653 10651 10649 10647 10645 10643 10640 10635 10632
10426 10432 10437 10440 10444 10457 10468 10477 10477 10482 10491 10494 10499 10505 10513 10521 10524 10533 10543 10553 10563 10572 10580 10586 10592 10596 10602 10606 10611 10618 10624 10627 10629 10633 10636 10639 10641 10643 10643 10643 10642 10640 10638 10637 10636 10633 10630 10626 10620
10409 10416 10422 10425 10432 10445 10451 10465 10468 10467 10478 10480 10485 10490 10496 10504 10511 10519 10528 10537 10549 10556 10564 10572 10578 10583 10587 10594 10600 10606 10610 10613 10617 10621 10625 10628 10630 10632 10633 10632 10630 10629 10627 10627 10625 10624 10621 10615 10610
10396 10403 10404 10413 10417 10429 10438 10452 10453 10455 10464 10466 10467 10472 10482 10490 10499 10508 10517 10526 10534 10544 10551 10556 10561 10567 10574 10581 10589 10593 10596 10601 10605 10611 10613 10616 10619 10621 10622 10621 10619 10618 10617 10616 10615 10613 10610 10605 10599
10380 10385 10390 10397 10402 10409 10424 10436 10443 10443 10449 10451 10449 10460 10466 10477 10486 10494 10504 10515 10524 10530 10534 10542 10549 10555 10563 10571 10574 10578 10585 10589 10594 10599 10602 10605 10608 10610 10611 10609 10608 10608 10608 10606 10605 10602 10598 10595 10588
10364 10366 10373 10378 10386 10396 10409 10416 10429 10429 10430 10424 10438 10445 10456 10464 10472 10480 10490 10501 10510 10517 10525 10532 10538 10546 10553 10558 10561 10567 10575 10577 10582 10587 10591 10595 10598 10599 10599 10598 10597 10597 10597 10596 10595 10592 10588 10584 10578
10343 10348 10353 10360 10367 10385 10385 10397 10413 10413 10404 10409 10421 10432 10441 10450 10459 10469 10478 10486 10495 10504 10511 10519 10527 10533 10541 10544 10548 10554 10561 10565 10571 10576 10581 10584 10587 10588 10588 10587 10587 10587 10587 10586 10584 10582 10578 10573 10567
10325 10328 10332 10340 10348 10363 10370 10379 10400 10387 10392 10392 10402 10415 10425 10436 10445 10454 10463 10472 10481 10490 10497 10504 10512 10520 10525 10529 10534 10541 10549 10555 10561 10565 10569 10572 10575 10576 10577 10577 10576 10576 10576 10575 10574 10571 10567 10562 10557
10303 10309 10314 10317 10327 10339 10350 10364 10368 10366 10371 10378 10383 10397 10410 10423 10430 10439 10449 10458 10466 10475 10483 10493 10500 10506 10512 10517 10521 10530 10538 10545 10549 10554 10558 10561 10563 10564 10565 10565 10566 10565 10564 10564 10563 10561 10557 10552 10547
10286 10286 10290 10298 10308 10318 10330 10340 10343 10343 10351 10361 10372 10379 10393 10405 10415 10423 10433 10442 10451 10460 10469 10478 10485 10493 10499 10505 10512 10519 10526 10534 10538 10542 10545 10550 10552 10552 10553 10554 10555 10554 10553 10553 10552 10551 10548 10543 10538
10259 10264 10267 10273 10286 10297 10309 10315 10315 10326 10339 10346 10354 10359 10371 10386 10401 10410 10418 10427 10436 10444 10454 10464 10472 10481 10484 10493 10501 10507 10514 10521 10525 10529 10533 10538 10540 10540 10540 10542 10543 10543 10543 10542 10542 10540 10537 10532 10527
10237 10240 10242 10248 10264 10276 10291 10297 10297 10310 10317 10325 10333 10341 10353 10368 10384 10392 10401 10410 10419 10429 10437 10447 10458 10465 10473 10478 10485 10492 10498 10505 10510 10516 10521 10525 10527 10527 10528 10529 10531 10531 10532 10531 10530 10528 10525 10522 10517
10211 10214 10220 10228 10242 10249 10265 10281 10282 10285 10297 10303 10309 10321 10333 10346 10361 10371 10382 10392 10403 10413 10423 10432 10441 10450 10457 10465 10472 10479 10485 10492 10497 10503 10508 10512 10514 10514 10515 10516 10519 10520 10520 10519 10519 10518 10515 10512 10508